Location: Unspecified
(47.9110°N, 14.3980°E)
Time: 08:06:29
(UTC+00:00)

Meteor 2-4 Rocket - Pass Details

Date: 06 August 2020
Orbit: 798 x 909 km, 81.2° (Epoch: 27 September)

Event Time Altitude Azimuth Distance (km) Brightness Sun altitude
Rises 21:31:06 0° 348° (NNW) 3,490 8.3 -22.1°
Reaches altitude 10° 21:33:36 10° 349° (N) 2,531 7.2 -22.3°
Maximum altitude 21:39:21 87° 76° (ENE) 860 3.6 -22.7°
Enters shadow 21:40:48 52° 166° (SSE) 1,042 3.7 -22.8°
